STARLINK-34339, 64160

Orbit data source: Space-Track

STARLINK-34339, 64160 is a payload satellite owned by SpaceX/Seattle (US) in SSO that was launched on Tue, 27 May 2025 UTC via an FALCON 9 launch vehicle from the Air Force Western Test Range (AFWTR). Payload-class satellites include a variety of spacecraft equipped with specific instruments for various scientific and technological missions. These include communications satellites like Starlink; space stations such as the ISS; scientific satellites like the Hubble; Earth observation satellites from companies like Planet Labs, Umbra, and HawkEye 360; GPS; miniature CubeSats for education and research; and military/defense satellites.

Loading next visibility...
Identifier
64160, 2025-112Q
Orbit
SSO
Country
Flag of USUS
Related business
Manufacturer
SpaceX/Seattle
Mission
Operational Commercial Communications
Bus & Motor
STARLINK V2MO, Unknown motor
Mass
575 kg wet, ~530 kg dry
Launch date (UTC)
2025-05-27 (1 year ago)
Launch vehicle
FALCON 9
Launch site
Air Force Western Test Range (AFWTR)
Object type
Payload
Rocket body
Debris
Shape & HBR
Box + 2 Pan, 17.7 m
Radar Cross Section
36.964 m², Large (>1 m²)

Expand to show TLE details & history
Last TLE update: 10 hours ago

TLE from 10 hours ago
0 STARLINK-34339
1 64160U 25112Q   26145.42274461  .00005870  00000-0  41045-3 0  9993
2 64160  97.4482 196.7768 0001144 157.6374 202.4903 15.05656495 54858
Epoch: 2026-05-25T10:08Z
TLE epoch observation values (Epoch: 2026-05-25T10:08:45.134Z)
Latitude
-0.00004°
Longitude
161.57799°
Altitude
553.293 km
Speed
7.585 km/s
True Right ascension
13h 07m 06s
True Declination
0° 00' 00"
Sunlit
Object was in full shadow at epoch
Visualization orbit readout
Latitude
Unknown
Longitude
Unknown
Altitude
Unknown
Speed
Unknown
Apparent Right ascension
Unknown
Apparent Declination
Unknown
Sunlit
N/A
Visualization observer readout
Local Sidereal Time
04:52:56
Azimuth
Unknown
Elevation
Unknown
Doppler factor
Unknown
Orbital elements
Apogee altitude
547.27 km
Perigee altitude
545.686 km
Semi-major axis
6,924.615 km
Eccentricity
0.00011
Inclination
97.4482°
RAAN
196.7768°
Arg. of periapsis
157.6374°
True anomaly
202.48529°
Mean anomaly
202.4903°
Eccentric anomaly
202.48779°
Mean motion
3.7666 °/min
Orbital period
95.58 mins
BSTAR
0.00041045
Loading maneuver chart data...
Computing Atmospheric mass density...
Loading historical data...
Loading historical data...
Loading historical data...
Loading historical data...
Loading historical data...
Loading historical data...
Loading historical data...

Documentation

Showing up to 5 results
|